RH
67 64 63 58 56 54 52 49 55 57 48 54 78 68 58 53 46 31 16 11 11 12 14 15 15 13 11 13 16 15 14 13 12
66 64 62 56 53 51 48 50 46 48 59 57 60 76 68 57 54 49 36 19 12 12 12 12 11 11 11 12 16 18 16 14 13
65 65 60 57 53 51 51 54 56 50 55 56 66 68 76 79 62 55 50 41 25 14 13 13 13 12 12 12 13 15 17 18 16
40 44 44 46 47 46 51 53 57 59 55 59 63 69 69 77 87 76 62 54 44 32 17 14 15 14 14 13 13 14 14 15 16
15 19 20 21 25 30 36 45 54 61 62 61 60 65 65 68 81 83 98 87 62 48 36 21 15 15 16 16 15 14 14 14 14
6 6 7 8 10 13 20 33 53 59 62 65 66 65 60 64 68 76 82 97 96 76 53 41 26 16 15 17 18 17 16 15 14
6 6 6 6 6 6 8 15 26 56 67 68 69 70 67 63 62 64 68 85 82 88 84 56 45 30 19 16 16 17 18 18 17
6 6 6 6 6 6 6 7 7 11 35 42 62 78 76 71 69 67 63 64 74 76 86 86 60 48 34 22 18 17 16 16 17
15 16 16 16 16 15 14 11 9 8 8 13 27 46 68 81 77 76 73 71 59 63 79 93 92 67 66 39 27 22 19 18 17
17 18 18 19 19 21 22 22 22 20 18 14 10 10 30 54 75 78 80 78 78 58 58 76 97 96 73 76 46 33 24 21 20
15 15 14 14 15 16 17 17 16 16 18 20 22 19 14 12 36 66 76 77 89 84 58 53 78 100 97 83 79 62 39 27 25
11 12 13 14 14 13 13 13 13 13 13 14 13 14 18 20 16 13 43 70 77 93 87 68 59 75 100 99 93 88 85 60 33
15 16 16 16 16 15 15 16 17 18 19 19 19 17 17 16 17 20 15 21 64 82 97 88 80 68 76 98 98 98 97 95 88
17 17 18 19 20 22 23 25 25 25 25 25 24 22 21 18 16 16 20 18 51 84 92 92 88 86 80 87 94 98 98 98 97
16 15 17 21 23 25 28 30 33 33 35 33 31 29 24 22 22 19 45 29 32 77 99 90 90 89 88 86 94 99 96 97 99
18 19 17 21 26 30 32 34 34 39 42 36 34 36 33 31 32 29 26 42 46 74 99 94 87 94 96 92 96 98 96 93 93
30 27 23 25 30 32 34 33 33 35 42 38 40 37 40 42 48 47 49 38 43 78 91 87 85 92 92 95 89 98 98 92 92
26 30 31 29 29 31 31 29 27 19 37 46 56 58 58 64 61 87 80 62 78 91 100 92 99 90 97 98 86 99 89 83 77
20 32 36 36 37 27 17 8 5 6 27 49 62 70 75 83 68 85 98 97 85 83 90 99 88 96 98 95 100 100 94 89 84
8 11 16 17 10 6 5 4 4 4 16 53 57 71 78 86 93 85 98 98 98 87 97 76 99 100 100 99 100 100 97 88 91
Wind_Speed
18 17 16 16 16 16 15 14 15 14 14 14 15 14 14 13 12 11 11 11 11 12 12 12 11 12 11 11 11 10 11 11 11
20 20 20 20 20 19 19 18 18 18 18 17 17 17 17 16 15 13 13 13 13 13 12 13 13 12 13 13 12 12 11 11 11
23 23 24 24 23 23 23 22 21 20 20 21 20 19 19 19 19 18 15 15 14 14 14 14 14 14 14 14 14 14 13 13 13
27 27 28 28 28 27 26 26 25 24 23 22 23 23 21 22 21 21 20 19 17 16 15 15 15 15 15 16 16 15 15 14 14
28 29 29 30 30 29 28 28 28 27 26 26 26 26 25 24 23 25 24 22 21 20 18 17 17 17 17 17 17 17 17 16 16
29 30 31 30 30 30 31 30 30 30 30 29 30 31 30 28 26 26 27 26 25 23 22 20 19 18 18 19 19 19 18 18 17
31 32 32 33 33 33 33 34 33 33 32 33 33 34 34 34 33 31 29 29 29 28 26 24 22 21 20 19 20 20 20 20 19
33 33 34 34 35 35 34 34 35 37 35 37 37 37 37 37 37 37 35 34 34 32 31 29 26 25 23 22 21 21 21 21 21
33 35 36 36 36 36 36 36 36 37 38 39 40 40 41 41 41 41 40 37 38 37 35 34 31 29 28 25 23 22 22 22 22
31 32 33 34 35 36 38 38 37 37 38 40 42 43 44 45 46 45 44 41 40 40 40 38 36 34 32 30 28 26 25 24 23
29 30 32 32 32 32 33 33 34 34 36 38 41 44 45 47 49 49 48 46 44 43 43 41 39 37 37 35 33 30 29 27 26
26 24 24 26 27 28 29 30 32 36 39 40 42 44 45 46 49 52 52 51 48 47 46 44 43 40 39 39 37 35 33 32 30
23 24 25 26 27 29 30 32 37 39 41 43 45 46 49 49 48 50 53 54 54 51 48 46 46 43 41 40 40 39 37 36 35
23 24 26 26 26 26 28 30 33 33 32 35 38 41 45 47 50 52 51 53 54 53 52 48 46 46 45 44 43 42 40 41 40
23 25 26 25 26 27 28 29 30 31 32 35 37 37 39 44 51 51 48 53 53 54 52 49 49 48 51 49 44 44 45 43 43
22 22 23 23 24 25 26 29 30 29 32 39 42 42 40 40 41 48 50 52 50 50 52 49 47 47 49 52 47 50 51 51 32
23 22 21 21 22 23 24 27 29 30 33 40 38 41 40 38 35 36 39 44 46 43 48 49 47 44 50 39 47 51 35 32 34
21 21 21 22 22 23 25 26 29 31 28 30 33 38 37 34 25 21 24 29 32 36 38 46 40 48 37 43 43 36 31 33 35
20 20 21 20 21 23 25 26 27 30 31 27 28 28 29 31 30 25 18 21 26 31 36 41 32 29 49 43 32 35 35 37 38
19 19 19 20 21 22 24 26 29 30 32 31 26 21 19 23 27 35 12 16 11 23 21 39 35 30 28 33 37 32 33 36 37
Wind_Direction
289 292 297 298 299 301 302 300 294 291 289 289 288 285 289 295 300 300 292 283 280 276 271 267 261 258 252 249 247 244 240 234 239
286 287 289 291 293 293 293 291 291 291 287 284 280 279 281 283 284 288 291 288 282 277 271 269 266 261 257 252 248 246 244 243 243
282 284 285 285 284 285 286 285 283 281 282 282 277 272 273 275 280 283 282 284 284 279 274 269 264 261 259 256 254 253 250 246 243
279 279 279 280 281 282 280 279 279 279 276 274 273 272 271 267 268 274 280 282 282 281 278 273 268 262 258 257 255 254 254 254 252
280 278 279 279 279 279 278 277 275 274 273 272 271 271 270 268 263 264 272 273 276 279 278 274 270 265 260 257 255 253 253 252 251
283 283 283 282 280 279 277 275 275 273 272 272 271 270 269 266 262 258 261 268 269 269 271 272 271 266 263 260 256 254 253 252 250
285 285 285 285 284 282 279 276 274 272 272 270 268 268 269 268 266 260 255 257 258 262 263 263 265 265 263 260 259 258 255 253 252
289 287 284 281 280 278 278 276 274 272 270 270 269 267 267 267 266 266 262 257 258 257 257 259 257 259 259 259 258 257 258 257 254
288 287 287 285 283 281 278 276 273 272 271 268 266 266 267 267 266 264 262 259 258 256 254 253 254 254 255 255 255 255 255 255 254
286 285 284 283 282 282 282 281 279 275 273 272 270 267 263 262 265 264 263 258 258 257 254 251 251 254 253 252 251 252 252 252 253
290 290 290 289 288 286 285 284 282 281 280 277 272 271 267 264 261 262 262 260 256 256 255 253 250 250 254 254 252 251 253 252 252
298 296 295 294 293 292 291 288 285 284 281 277 274 273 270 267 264 262 259 259 256 256 253 252 251 249 250 254 255 254 253 254 254
299 299 299 298 297 293 289 287 285 285 284 283 281 276 271 266 261 260 261 257 256 252 252 252 251 250 249 250 254 253 252 253 253
300 299 298 298 295 291 291 292 291 290 287 283 279 278 275 272 267 262 256 255 253 252 251 250 250 250 249 248 249 251 251 250 250
306 305 301 301 299 298 297 298 302 300 300 298 296 291 282 272 268 265 259 251 248 249 248 250 250 251 249 249 248 250 250 251 252
310 309 309 309 305 300 302 305 305 305 306 309 306 300 298 288 278 268 261 254 246 248 248 251 251 253 251 249 249 247 252 245 254
313 311 313 310 310 311 314 315 315 317 315 318 313 307 301 299 289 281 269 254 245 251 248 250 254 255 251 254 261 245 252 253 250
313 313 311 310 312 314 315 315 316 320 323 324 317 311 310 302 286 276 266 249 244 247 251 247 256 249 247 247 246 239 249 249 251
316 313 309 310 315 319 322 323 326 328 324 319 313 305 300 297 293 266 262 238 242 249 246 245 247 270 251 248 233 234 242 252 248
314 314 315 318 320 319 320 321 323 325 329 322 326 312 291 281 313 296 270 270 255 243 264 252 251 256 240 243 228 233 243 250 249